KBNA

Nashville International Airport

Airport
ICAO code
KBNA
Summary
ICAO Region
NAM
ICAO Territory
Location

Nashville, Tennessee,

Coordinates
36° 7' 53" N , 86° 40' 10" W
KCC
Airport GND
Jet Blast
Airport LOS
Parallel Runway Operation
Airport WX
Cumulonimbus
Metar
KBNA 270853Z 20009KT 10SM SCT090 SCT110 18/16 A2964 RMK AO2 RAE53 TSE25 SLP033 P0009 60065 T01830156 58065 $

Description

Nashville International Airport is a public and military (ANG) use airport in the southeastern section of Nashville, Tennessee.

Climatology

Humid “subtropical” climate (Köppen climate classification Cfa) - characterized by hot, humid summers and cool winters. Significant amounts of precipitation occur in all seasons in most areas. Winter rainfall (and sometimes snowfall) is associated with large storms that the westerlies steer from west to east. Most summer rainfall occurs during thunderstorms and occasional tropical storms (hurricanes).

Airport map

Aerial View

Airport accidents

SKYbrary Partners:

Safety knowledge contributed by: